Location: Coste?ti-Deal
(45.7333°N, 23.1667°E)
Time: 06:21:23
(UTC+00:00)

Daily predictions for brighter satellites

Satellite Brightness Start Highest point End
(mag) Time Altitude Azimuth Time Altitude Azimuth Time Altitude Azimuth
ARGOS Delta rocket 4.5 16:31:47 10° NNE 16:36:47 40° E 16:41:32 10° SSE
SL-08 RB Rocket 4.5 16:32:45 10° S 16:37:16 60° W 16:41:51 10° NNW
SL-4 R/B 3.1 16:33:33 10° WNW 16:37:41 39° N 16:42:03 10° ENE
SKYMED 3 4.4 16:37:59 10° NNE 16:42:06 70° ESE 16:46:12 10° S
Cosmos 2219 3.4 16:37:19 10° NNW 16:43:07 85° WSW 16:48:52 10° SSE
SAR-Lupe-3 4.5 16:39:45 10° SSE 16:43:17 68° ENE 16:46:51 10° N
Meteor 1-21 4.4 16:37:41 10° NNW 16:43:25 81° W 16:49:04 10° S
Cosmos 2242 Rocket 4.4 16:39:14 10° NNW 16:43:33 56° W 16:47:51 10° S
Okean O Rocket 2.3 16:40:18 10° SE 16:44:14 34° ENE 16:48:12 10° N
Cosmos 2263 Rocket 2.8 16:45:18 10° NNW 16:50:38 39° NE 16:55:56 10° ESE
Cosmos 2360 4.3 16:45:41 10° SSW 16:51:24 87° WNW 16:57:11 10° NNE
Spot 1 4.0 16:47:17 10° NNE 16:51:31 63° ESE 16:55:35 10° S
CZ-2C R/B 3.4 16:51:38 10° SSW 16:52:18 10° S 16:52:59 10° S
Cosmos 1242 Rocket 2.6 16:49:45 10° S 16:53:14 55° E 16:56:44 10° NNE
SL-14 R/B 3.7 16:52:13 10° N 16:55:58 40° ENE 16:59:43 10° SSE
COBE Rocket 3.9 16:53:23 10° SSE 16:58:14 64° ENE 17:02:59 10° N
YAOGAN 1 2.6 16:54:04 10° SSE 16:58:17 56° ENE 17:02:32 10° N
Cosmos 1805 3.3 16:54:51 10° S 16:58:37 52° E 17:02:25 10° NNE
Cosmos 1674 Rocket 4.0 16:54:35 10° N 16:58:44 39° ENE 17:02:52 10° SE
USA 267 3.7 16:52:28 10° SE 16:58:57 62° SW 17:05:28 10° NW
SKYMED 2 4.2 16:57:20 10° N 17:01:38 62° WNW 17:05:55 10° SSW
DMSP B5D2-2 4.5 16:56:40 10° N 17:01:57 70° WNW 17:07:10 10° SSW
Cosmos 2082 3.7 16:56:18 10° NNW 17:02:04 77° ENE 17:07:48 10° SSE
Cosmos 1726 2.6 16:59:57 10° SSE 17:03:16 34° E 17:06:37 10° NNE
OBJECT-B 2.0 17:08:07 16° ENE 17:08:07 16° ENE 17:09:42 10° NNE
Cosmos 1697 Rocket 3.2 17:04:02 10° SW 17:09:36 64° WNW 17:15:13 10° NNE
Cosmos 1674 4.0 17:06:14 10° NNW 17:09:49 43° W 17:13:21 10° SSW
Cosmos 1766 3.8 17:08:55 10° SSE 17:12:30 36° E 17:16:08 10° NNE
Cosmos 2279 Rocket 4.1 17:06:29 10° N 17:12:46 88° W 17:19:02 10° S
Cosmos 2180 Rocket 4.5 17:11:47 10° N 17:18:03 79° E 17:24:21 10° SSE
Cosmos 2221 Rocket 3.6 17:16:21 10° N 17:20:54 89° E 17:25:26 10° S
ASTEX 1 3.9 17:16:48 10° N 17:21:44 64° W 17:26:39 10° SSW
IGS 5A 4.3 17:23:23 22° ESE 17:25:07 30° ENE 17:28:44 10° N
Resurs 01 Rocket 3.5 17:27:52 14° ENE 17:27:52 14° ENE 17:29:56 10° NNE
Cosmos 1378 Rocket 3.4 17:23:38 10° N 17:28:03 78° E 17:32:23 10° SSE
Cosmos 968 Rocket 4.2 17:24:09 10° SSE 17:28:43 31° E 17:33:17 10° NE
USA 229 DEB 4.4 17:24:44 10° NW 17:32:04 65° WSW 17:39:51 10° SSE
USA 229 4.4 17:24:50 10° NW 17:32:10 65° WSW 17:39:58 10° SSE
Meteor 2-14 Rocket 4.3 17:26:45 10° S 17:32:48 81° E 17:38:52 10° N
Cosmos 1733 4.0 17:29:27 10° SSW 17:33:06 51° WNW 17:36:47 10° N
Cosmos 540 Rocket 4.3 17:29:35 10° NNW 17:34:31 50° WSW 17:39:26 10° S
Cosmos 2227 Rocket 4.3 17:30:07 10° NW 17:34:51 28° WSW 17:39:33 10° SSW
Cosmos 1733 Rocket 3.9 17:33:41 10° SSW 17:38:00 54° WNW 17:42:23 10° N
Cosmos 1470 4.1 17:40:47 23° NE 17:40:47 23° NE 17:42:45 10° NNE
CZ-4B R/B 3.9 17:35:17 10° S 17:40:30 54° W 17:45:52 10° NNW
Cosmos 2322 Rocket 4.0 17:36:49 10° SSE 17:46:11 - NE 17:37:34 13° SSE
CSL-04 Rocket 3.8 17:40:02 19° SE 17:43:39 53° ENE 17:48:53 10° N
Cosmos 2084 4.5 17:41:20 10° WSW 17:44:57 40° NW 17:48:35 10° NNE
Feng Yun 1-1 Rocket 4.3 17:39:39 10° SSE 17:45:11 80° WSW 17:50:39 10° NNW
Gbstr 26 Del rocket 4.4 17:37:45 10° SW 17:45:19 77° SE 17:52:13 16° ENE
Cosmos 841 Rocket 3.9 17:40:25 10° NNW 17:45:33 63° WSW 17:50:37 10° S
Cosmos 1850 Rocket 4.4 17:41:12 10° SSW 17:46:23 67° WNW 17:51:39 10° NNE
Okean-O 2.8 17:46:36 33° SE 17:48:13 50° ENE 17:52:30 10° N
ISS -3.9 17:45:59 10° WNW 17:49:21 89° SSW 17:49:52 61° ESE
Resurs 1-3 4.0 17:48:54 37° E 17:49:41 41° ENE 17:53:49 10° N
Cosmos 1980 Rocket 2.7 17:44:15 10° SW 17:49:49 61° WNW 17:55:24 10° NNE
Meteor 2-21 Rocket 4.3 17:43:54 10° S 17:49:57 77° E 17:56:00 10° NNE
Meteor 1-12 Rocket 4.3 17:45:01 10° S 17:50:59 78° E 17:57:02 10° NNE
CZ-4 R/B 2.2 17:47:03 10° S 17:51:08 54° W 17:55:15 10° NNW
Cosmos 1570 Rocket 4.1 17:47:15 10° NNW 17:52:26 54° ENE 17:54:22 35° ESE
SJ-6B 2.5 17:54:51 50° SE 17:55:37 67° ENE 17:59:22 10° N
Cosmos 1428 Rocket 4.4 17:53:57 10° S 17:59:58 59° E 18:06:05 10° NNE
Cosmos 489 Rocket 4.4 17:53:41 10° SSW 18:00:02 85° ESE 18:06:24 10° NNE
Cosmos 2195 Rocket 4.4 17:53:58 10° S 18:00:03 62° E 18:06:15 10° NNE
deb Chang Zheng 4 4.2 18:04:53 36° NE 18:04:53 36° NE 18:08:05 10° N
Cosmos 2278 3.7 17:59:17 10° SSW 18:04:59 81° WNW 18:10:42 10° NNE
USA 215 4.4 17:59:57 10° NE 18:05:50 37° NNW 18:11:42 10° WNW
USA 186 1.9 18:06:54 74° SW 18:07:01 75° WSW 18:10:22 10° NNW
Meteor 2-16 Rocket 4.4 18:00:55 10° S 18:07:03 88° E 18:13:15 10° N
Meteor 1-24 Rocket 3.5 18:02:13 10° N 18:07:30 64° ENE 18:09:12 41° SE
SL-16 R/B 2.2 18:02:48 10° S 18:08:18 54° ESE 18:13:49 10° NE
Cosmos 1437 Rocket 2.6 18:09:35 10° SSW 18:13:21 79° W 18:17:06 10° N
Cosmos 2208 Rocket 4.0 18:10:23 10° NNW 18:15:45 67° ENE 18:16:50 54° ESE
Cosmos 2285 Rocket 4.1 18:10:38 10° NNW 18:17:00 79° WSW 18:20:53 25° SSE
Cosmos 1844 Rocket 3.2 18:11:54 10° NNW 18:17:16 41° NE 18:17:37 40° ENE
Cosmos 2026 Rocket 3.8 18:11:32 10° S 18:17:33 71° E 18:23:35 10° NNE
Meteor 1-22 Rocket 4.0 18:12:12 10° S 18:17:33 79° E 18:23:07 10° NNE
SL-4 R/B 2.2 18:13:06 10° WNW 18:17:39 76° NNE 18:18:03 70° ENE
Okean O Rocket 3.8 18:17:03 10° SSW 18:20:37 25° W 18:24:14 10° NW
USA 81 3.9 18:16:38 10° N 18:21:56 75° E 18:23:04 55° SSE
Cosmos 1908 Rocket 4.3 18:18:03 10° SSW 18:22:16 51° WNW 18:26:31 10° N
Cosmos 1553 Rocket 4.2 18:18:24 10° N 18:24:33 50° ENE 18:25:03 49° E
MOS 1 4.4 18:25:58 52° ENE 18:26:08 52° ENE 18:31:37 10° N
Landsat 5 4.2 18:21:57 10° N 18:26:23 59° WNW 18:30:45 10° SSW
Cosmos 2292 Rocket 4.3 18:20:44 10° SSW 18:26:31 62° W 18:30:53 10° N
Cosmos 1782 Rocket 3.5 18:29:51 81° WNW 18:29:51 81° WNW 18:34:12 10° N
USA 281 4.4 18:29:29 25° NE 18:29:58 25° NE 18:35:05 10° N
BREEZE M DEB (TANK) 3.6 18:27:37 10° SW 18:31:25 34° SW 18:31:25 34° SW
Cosmos 2263 Rocket 3.5 18:29:20 10° NW 18:34:31 36° WSW 18:38:39 15° SSW
H-2A R/B 3.6 18:39:28 34° N 18:39:28 34° N 18:41:44 10° N
OBJECT-B 3.7 18:38:57 13° WNW 18:38:57 13° WNW 18:39:38 10° NW
Cosmos 1844 4.1 18:33:18 10° NNW 18:38:13 47° NE 18:38:13 47° NE
Meteor 2-5 Rocket 4.0 18:33:23 10° NNW 18:38:51 62° W 18:41:16 33° SSW
SPOT 1/Viking Rocket 3.8 18:51:29 62° N 18:51:29 62° N 18:55:47 10° NNW
Cosmos 1025 Rocket 3.9 18:48:03 10° NNW 18:51:17 46° NW 18:51:17 46° NW
Cosmos 1975 Rocket 4.2 18:57:19 10° NNW 19:00:50 42° WNW 19:00:50 42° WNW
Resurs 01 Rocket 3.0 19:05:25 35° NNW 19:05:25 35° NNW 19:08:02 10° NNW
ATLAS 2AS CENTAUR R/B 4.5 19:14:16 10° NNW 19:19:33 21° NNE 19:21:35 18° NE
Ariane Rocket 4.3 19:25:15 35° NNW 19:25:15 35° NNW 19:28:10 10° NNW
Terra 4.3 19:28:16 14° N 19:28:16 14° N 19:29:04 10° N
Cosmos 2322 Rocket 3.7 19:19:17 10° SW 19:27:51 28° N 19:30:32 10° NNE
NOSS 3-4 (A) 4.5 19:25:24 10° NNW 19:31:05 43° NNE 19:31:05 43° NNE
NOSS 3-4 (C) 4.5 19:25:30 10° NNW 19:31:11 43° NNE 19:31:11 43° NNE
USA 215 4.4 19:47:18 34° NNE 19:47:52 35° N 19:53:38 10° NW
SL-16 R/B 4.0 19:47:53 10° WSW 19:52:43 28° NW 19:57:35 10° N
Cosmos 1844 Rocket 4.4 19:55:59 10° NW 19:59:17 28° WNW 19:59:17 28° WNW
Cosmos 2278 Rocket 4.2 20:01:01 10° NNW 20:03:03 21° N 20:03:03 21° N
USA 281 4.2 20:16:22 41° NNW 20:16:22 41° NNW 20:20:25 10° NNW
ATLAS 2AS CENTAUR R/B 4.4 21:05:36 10° NNW 21:09:00 27° NNW 21:09:00 27° NNW
SL-16 R/B 4.5 23:45:23 23° N 23:45:23 23° N 23:47:43 10° N
